Location: Tucson
(32.2220°N, 110.9260°W)
Time: 20:57:37
(UTC-07:00)

ISS - Visible Passes

Search period start: 16 July 2018 00:00
Search period end: 26 July 2018 00:00
Orbit: 402 x 408 km, 51.6° (Epoch: 17 July)

Date Brightness Start Highest point End Pass type
(mag) Time Alt. Az. Time Alt. Az. Time Alt. Az.
18 Jul -0.7 04:22:10 10° N 04:24:31 18° NE 04:26:52 10° E visible
18 Jul -4.0 20:57:57 10° SW 21:01:10 64° SE 21:04:24 10° NE visible
18 Jul -0.4 22:36:29 10° WNW 22:37:56 12° NNW 22:39:25 10° N visible
19 Jul -0.2 03:31:18 10° NNE 03:32:11 11° NNE 03:33:03 10° NE visible
19 Jul -2.9 20:06:20 10° S 20:09:09 27° SE 20:11:59 10° ENE visible
19 Jul -1.1 21:43:04 10° W 21:45:37 21° NW 21:48:11 10° NNE visible
20 Jul -2.5 04:13:46 10° NNW 04:16:55 42° NE 04:20:04 10° ESE visible
20 Jul -2.4 20:50:18 10° WSW 20:53:23 40° NW 20:56:30 10° NNE visible
21 Jul -1.2 03:22:02 10° NNW 03:24:42 22° NE 03:27:20 10° E visible
21 Jul -2.8 04:58:21 10° WNW 05:01:08 26° SW 05:03:55 10° S visible
21 Jul -3.9 19:58:00 10° SW 20:01:14 89° SE 20:04:30 10° NE visible
21 Jul -0.1 21:37:39 10° NW 21:38:08 10° NNW 21:38:37 10° NNW visible
22 Jul -0.4 02:30:44 10° N 02:32:21 13° NNE 02:33:58 10° ENE visible
22 Jul -3.9 04:05:52 10° NW 04:09:06 60° SW 04:12:20 10° SSE visible
22 Jul -0.7 20:43:30 10° WNW 20:45:44 17° NW 20:47:59 10° N visible
23 Jul -1.6 19:50:29 10° WSW 19:53:26 31° NW 19:56:23 10° NNE visible
